Regional Weather Roundup
Issued by NWS Green Bay, WI

Home | Current Version | Previous Version | Text Only | Print | Product List | Glossary On
Versions: 1 2 3 4 5 6 7 8 9 10 11 12 13 14 15 16 17 18 19 20 21 22 23 24 25 26 27 28 29 30 31 32 33 34 35 36 37 38 39 40 41 42 43 44 45 46 47 48 49 50
000
ASUS43 KGRB 210510
RWRGRB

NORTH-CENTRAL AND NORTHEAST WISCONSIN REGIONAL WEATHER ROUNDUP
NATIONAL WEATHER SERVICE GREEN BAY WI
1100 PM CST SAT DEC 20 2014

WIZ005-009-010>012-018-019-210600-
NORTH CENTRAL WISCONSIN

CITY           SKY/WX    TMP DP  RH WIND       PRES   REMARKS
IRONWOOD       CLOUDY    28  27  93 S5        30.07S
MANITOWISH WTR CLOUDY    27  26  98 S8        30.10S
ARBOR VITAE    CLOUDY    29  27  92 S7        30.10S FOG
EAGLE RIVER    CLOUDY    27  26  96 S3        30.11S
LAND O LAKES   CLOUDY    28  26  93 CALM      30.11F
RHINELANDER    CLOUDY    26  24  92 S5        30.12F
PHILLIPS       CLOUDY    28  26  93 S6        30.10F FOG
ANTIGO         CLOUDY    25  24  97 S7        30.14F FOG
TOMAHAWK       CLOUDY    28  25  91 CALM      30.13S FOG
MERRILL        CLOUDY    28  26  91 S3        30.14S
$$

WIZ013-073-210600-
NORTHEAST WISCONSIN

CITY           SKY/WX    TMP DP  RH WIND       PRES   REMARKS
IRON MOUNTAIN  CLOUDY    27  23  85 S5        30.15F
MARINETTE      CLOUDY    28  23  80 CALM      30.20S
OCONTO         CLOUDY    28  27  94 CALM      30.21S
$$

WIZ017-030-035>037-045-210600-
CENTRAL WISCONSIN

CITY           SKY/WX    TMP DP  RH WIND       PRES   REMARKS
MEDFORD        CLOUDY    28  26  96 S8        30.12S FOG
WAUSAU         CLOUDY    28  25  88 S6        30.14S
MOSINEE        CLOUDY    28  28 100 SE6       30.16S
MARSHFIELD     CLOUDY    29  26  89 S7        30.14S FOG
WISC RAPIDS    CLOUDY    29  25  85 SE5       30.17F
STEVENS POINT  CLOUDY    27  25  91 S3        30.17S FOG
WAUPACA        CLOUDY    30  27  89 SE5       30.20S FOG
SHAWANO        CLOUDY    30  26  84 CALM      30.20F FOG
CLINTONVILLE   CLOUDY    28  27  93 S3        30.20S FOG
$$

WIZ038-039-048-051-210600-
FOX VALLEY

CITY           SKY/WX    TMP DP  RH WIND       PRES   REMARKS
NWS GREEN BAY  CLOUDY    29  27  92 CALM      30.21F FOG
APPLETON       CLOUDY    28  28 100 S3        30.20S FOG
OSHKOSH        CLOUDY    29  26  89 S5        30.20F FOG
FOND DU LAC    CLOUDY    30  26  85 S6        30.20F
$$

WIZ022-050-052-210600-
EAST CENTRAL WISCONSIN

CITY           SKY/WX    TMP DP  RH WIND       PRES   REMARKS
STURGEON BAY   CLOUDY    28  25  86 CALM      30.22S
MANITOWOC      CLOUDY    30  28  92 CALM      30.22F
SHEBOYGAN      CLOUDY    30  25  81 S3        30.22S
$$

LMZ563-521-522-541>543-210600-
LAKESHORE

STATION/POSITION TIME  TEMP    WIND        PRES    VSBY  WAVE
                       AIR SEA DIR/SP/G                  HT/PER
                 (UTC) (F)     (DEG/KT/KT) (MB)    (MI)  (FT/S)
SHEBOYGAN LKSHOR 0500   31 34  200/  5/  6 1024.5S
KEWAUNEE LKSHORE 0500   29     290/  2/  4 1022.4R
ALGOMA MARINA    0500             CALM       N/A
NORTHPORT PIER   0500   30     230/  1/  5 1023.4R
SISTER BAY LKSHO 0500             CALM       N/A
CHAMBERS ISLAND  0500   28        CALM     1023.4S
MENOMINEE LKSHOR 0500   29     180/  2/  2 1023.4S
$$


USA.gov is the U.S. government's official web portal to all federal, state and local government web resources and services.